Location: San Antonio de Areco
(34.2500°S, 59.4670°W)
Time: 00:37:09
(UTC-03:00)

ISS - Visible Passes

Search period start: 02 July 2015 00:00
Search period end: 12 July 2015 00:00
Orbit: 398 x 403 km, 51.6° (Epoch: 01 July)

Date Brightness Start Highest point End Pass type
(mag) Time Alt. Az. Time Alt. Az. Time Alt. Az.
03 Jul -1.5 19:40:29 10° NNW 19:42:11 23° N 19:42:11 23° N visible
04 Jul -1.2 18:48:17 10° NNE 18:50:01 14° NE 18:51:20 12° ENE visible
04 Jul -0.3 20:23:01 10° WNW 20:23:57 17° WNW 20:23:57 17° WNW visible
05 Jul -3.5 19:29:21 10° NW 19:32:38 86° NE 19:33:00 67° ESE visible
06 Jul -2.4 18:36:09 10° NNW 18:39:10 35° NE 18:41:59 12° ESE visible
06 Jul -0.6 20:13:08 10° W 20:14:35 17° WSW 20:14:35 17° WSW visible
07 Jul -2.1 19:18:54 10° WNW 19:21:58 36° SW 19:23:29 23° SSE visible
08 Jul -3.2 18:25:06 10° NW 18:28:23 80° SW 18:31:42 10° SE visible
08 Jul -0.4 20:04:10 10° SW 20:04:52 11° SSW 20:04:52 11° SSW visible
09 Jul -1.0 19:09:03 10° WSW 19:11:26 18° SSW 19:13:37 11° SSE visible
11 Jul -0.5 19:00:32 10° SSW 19:00:59 10° SSW 19:01:22 10° SSW visible
